Regional Weather Roundup
Issued by NWS

Home | Current Version | Previous Version | Graphics & Text | Print | Product List | Glossary On
Versions: 1 2 3 4 5 6 7 8 9 10 11 12 13 14 15 16 17 18 19 20 21 22 23 24 25 26 27 28 29 30 31 32 33 34 35 36 37 38 39 40 41 42 43 44 45 46 47 48 49 50
000
ASUS45 KABQ 110801
RWRNM
WEATHER ROUNDUP FOR NEW MEXICO
NATIONAL WEATHER SERVICE ALBUQUERQUE NM
200 AM MDT FRI JUL 11 2014

NOTE: "FAIR" MEANS FEW OR NO CLOUDS BELOW 12,000 FEET AGL WITH NO
       SIGNIFICANT WEATHER OR OBSTRUCTIONS TO VISION.

      THIS PRODUCT IS RELEASED AS TWO VERSIONS.  ONE VERSION NEAR
      THE TOP OF THE HOUR CONTAINING PRELIMINARY DATA FROM ALBUQUERQUE
      AND OTHER STATIONS.  A FINAL VERSION WITH ADDITIONAL DATA IS
      ISSUED ABOUT 10 MINUTES AFTER THE HOUR.

NMZ501-503-504-510>518-110900-
NORTHWEST PLATEAU/NORTHCENTRAL MOUNTAINS

CITY           SKY/WX    TMP DP  RH WIND       PRES   REMARKS
FARMINGTON     LGT RAIN  67  59  75 N7        30.14F
LOS ALAMOS     PTCLDY    66  48  52 S5        30.27F
SANTA FE       PTCLDY    65  49  56 NE3       30.21F
TAOS             N/A    N/A N/A N/A MISG        N/A
ANGEL FIRE     FAIR      47  44  89 SE5       30.38S

$$
NMZ402-403-502-505>509-110900-
WESTCENTRAL MOUNTAINS/SOUTHWEST MOUNTAINS

CITY           SKY/WX    TMP DP  RH WIND       PRES   REMARKS
GALLUP         PTCLDY    62  52  69 SW3       30.23
GRANTS         MOCLDY    64  51  64 NW6       30.25F

$$
NMZ407-409-411-412-110900-
SOUTHERN DESERTS

CITY           SKY/WX    TMP DP  RH WIND       PRES   REMARKS
LORDSBURG      FAIR      72  59  64 W6        30.09F
DEMING         CLOUDY    77  59  53 NW5       30.06S
LAS CRUCES     PTCLDY    78  49  35 E5        30.07S
HOLLOMAN AFB   PTCLDY    78  51  39 SE14      30.04R
T OR C         MOCLDY    76  54  46 W7        30.09S

$$
NMZ519>523-110900-
CENTRAL VALLEYS/CENTRAL HIGHLANDS

CITY           SKY/WX    TMP DP  RH WIND       PRES   REMARKS
ALBUQUERQUE    MOCLDY    74  54  49 CALM      30.15S
DOUBLE EAGLE   CLOUDY    67  57  70 CALM      30.19F
MORIARTY ARPT  FAIR      62  53  72 CALM      30.23S
CLINES CORNERS CLOUDY    67  47  48 W6        30.26F
BELEN          PTSUNNY   72  56  57 CALM      30.14S
SOCORRO        FAIR      74  53  47 W3        30.10S

$$
NMZ524>526-539-540-110900-
SOUTHCENTRAL MOUNTAINS

CITY           SKY/WX    TMP DP  RH WIND       PRES   REMARKS
RUIDOSO        NOT AVBL

$$
NMZ527>531-110900-
NORTHEAST HIGHLANDS/NORTHEAST PLAINS

CITY           SKY/WX    TMP DP  RH WIND       PRES   REMARKS
LAS VEGAS      CLEAR     60  48  64 S13       30.25S
RATON            N/A    N/A N/A N/A MISG      30.18F
CLAYTON        CLEAR     71  47  42 S16       30.11F

$$
NMZ532>537-110900-
EASTCENTRAL PLAINS

CITY           SKY/WX    TMP DP  RH WIND       PRES   REMARKS
TUCUMCARI      CLEAR     76  51  41 S16       30.07S
CANNON AFB     CLEAR     69  54  58 S9        30.14S
CLOVIS AIRPORT NOT AVBL

$$
NMZ028-029-538-110900-
SOUTHEAST PLAINS

CITY           SKY/WX    TMP DP  RH WIND       PRES   REMARKS
ROSWELL        CLEAR     76  56  49 S18       30.09R
ARTESIA        CLEAR     75  55  50 S15G21    30.08S
CARLSBAD       CLEAR     75  55  49 SE8       30.07R
HOBBS          CLEAR     72  57  60 S12       30.12S


$$


USA.gov is the U.S. government's official web portal to all federal, state and local government web resources and services.